TimeEST,TemperatureF,Dew PointF,Humidity,Sea Level PressureIn,VisibilityMPH,Wind Direction,Wind SpeedMPH,Gust SpeedMPH,PrecipitationIn,Events,Conditions,WindDirDegrees,DateUTC
12:15 AM,45.5,37.8,74,29.63,10.0,Calm,Calm,-,N/A,,Overcast,0,2013-02-28 05:15:00
12:35 AM,45.5,37.9,75,29.63,10.0,Calm,Calm,-,N/A,,Overcast,0,2013-02-28 05:35:00
12:55 AM,46.0,37.9,73,29.63,10.0,WSW,4.6,-,N/A,,Overcast,250,2013-02-28 05:55:00
1:15 AM,46.4,37.9,72,29.62,10.0,West,4.6,-,N/A,,Overcast,260,2013-02-28 06:15:00
1:35 AM,45.0,37.9,76,29.62,10.0,Calm,Calm,-,N/A,,Overcast,0,2013-02-28 06:35:00
2:15 AM,44.8,38.3,78,29.62,10.0,Calm,Calm,-,N/A,,Overcast,0,2013-02-28 07:15:00
2:35 AM,44.6,38.5,79,29.62,10.0,Calm,Calm,-,N/A,,Overcast,0,2013-02-28 07:35:00
2:55 AM,44.6,38.7,80,29.61,10.0,Calm,Calm,-,N/A,,Overcast,0,2013-02-28 07:55:00
3:15 AM,45.0,38.7,79,29.61,10.0,Calm,Calm,-,N/A,,Overcast,0,2013-02-28 08:15:00
3:35 AM,44.8,38.3,78,29.61,10.0,Calm,Calm,-,N/A,,Overcast,0,2013-02-28 08:35:00
3:55 AM,44.6,38.3,79,29.61,10.0,Calm,Calm,-,N/A,,Overcast,0,2013-02-28 08:55:00
4:15 AM,44.8,37.9,77,29.61,10.0,Calm,Calm,-,N/A,,Overcast,0,2013-02-28 09:15:00
4:35 AM,45.0,37.4,75,29.61,10.0,WSW,3.5,-,N/A,,Overcast,250,2013-02-28 09:35:00
4:55 AM,44.6,37.6,76,29.61,10.0,West,3.5,-,N/A,,Overcast,260,2013-02-28 09:55:00
5:15 AM,44.4,37.4,76,29.61,10.0,West,4.6,-,N/A,,Overcast,260,2013-02-28 10:15:00
5:35 AM,44.6,36.9,74,29.61,10.0,West,5.8,-,N/A,,Mostly Cloudy,260,2013-02-28 10:35:00
6:15 AM,44.2,36.5,74,29.61,10.0,WSW,5.8,-,N/A,,Overcast,250,2013-02-28 11:15:00
6:35 AM,44.1,36.5,75,29.62,10.0,WSW,4.6,-,N/A,,Overcast,250,2013-02-28 11:35:00
6:55 AM,43.9,36.5,75,29.62,10.0,West,4.6,-,N/A,,Light Drizzle,260,2013-02-28 11:55:00
7:15 AM,43.9,36.9,76,29.62,10.0,WSW,4.6,-,N/A,,Light Drizzle,250,2013-02-28 12:15:00
7:35 AM,43.9,36.7,76,29.62,10.0,West,3.5,-,N/A,,Light Drizzle,260,2013-02-28 12:35:00
7:55 AM,44.1,36.7,75,29.62,10.0,Calm,Calm,-,N/A,,Mostly Cloudy,0,2013-02-28 12:55:00
8:15 AM,44.4,36.9,75,29.63,10.0,Calm,Calm,-,N/A,,Mostly Cloudy,0,2013-02-28 13:15:00
8:35 AM,44.6,36.5,73,29.63,10.0,WSW,5.8,-,N/A,,Overcast,250,2013-02-28 13:35:00
8:55 AM,44.6,37.0,75,29.63,10.0,West,8.1,-,N/A,,Overcast,280,2013-02-28 13:55:00
9:15 AM,44.4,36.9,75,29.63,10.0,West,8.1,-,N/A,,Overcast,280,2013-02-28 14:15:00
9:35 AM,44.8,37.0,74,29.63,10.0,WNW,4.6,-,N/A,,Overcast,290,2013-02-28 14:35:00
9:55 AM,45.7,37.0,72,29.62,10.0,WNW,5.8,-,N/A,,Overcast,290,2013-02-28 14:55:00
10:15 AM,46.6,37.2,70,29.62,10.0,West,5.8,-,N/A,,Overcast,270,2013-02-28 15:15:00
10:35 AM,47.3,36.7,67,29.61,10.0,WNW,4.6,-,N/A,,Mostly Cloudy,290,2013-02-28 15:35:00
10:55 AM,48.6,36.1,62,29.60,10.0,NNW,3.5,-,N/A,,Clear,330,2013-02-28 15:55:00
11:15 AM,49.5,34.9,57,29.59,10.0,Calm,Calm,-,N/A,,Clear,0,2013-02-28 16:15:00
11:35 AM,49.5,32.4,52,29.58,10.0,Calm,Calm,-,N/A,,Scattered Clouds,0,2013-02-28 16:35:00
11:55 AM,49.1,31.6,51,29.58,10.0,West,5.8,-,N/A,,Mostly Cloudy,260,2013-02-28 16:55:00
12:15 PM,49.6,32.0,51,29.57,10.0,WNW,5.8,-,N/A,,Mostly Cloudy,300,2013-02-28 17:15:00
12:35 PM,50.2,31.6,49,29.57,10.0,West,10.4,-,N/A,,Mostly Cloudy,280,2013-02-28 17:35:00
12:55 PM,50.0,31.5,49,29.56,10.0,West,9.2,-,N/A,,Overcast,270,2013-02-28 17:55:00
1:35 PM,50.0,32.4,51,29.56,10.0,West,10.4,16.1,N/A,,Overcast,280,2013-02-28 18:35:00
1:55 PM,49.5,32.4,52,29.56,10.0,WNW,11.5,-,N/A,,Overcast,290,2013-02-28 18:55:00
2:15 PM,48.9,32.4,53,29.56,10.0,WNW,10.4,-,N/A,,Overcast,290,2013-02-28 19:15:00
2:35 PM,48.6,32.0,53,29.56,10.0,WNW,12.7,-,N/A,,Overcast,290,2013-02-28 19:35:00
2:55 PM,48.2,31.6,53,29.56,10.0,WNW,12.7,-,N/A,,Overcast,290,2013-02-28 19:55:00
3:15 PM,48.2,32.0,54,29.56,10.0,West,12.7,17.3,N/A,,Mostly Cloudy,280,2013-02-28 20:15:00
3:35 PM,47.3,31.6,55,29.57,10.0,WNW,11.5,-,N/A,,Mostly Cloudy,290,2013-02-28 20:35:00
3:55 PM,47.3,31.8,55,29.56,10.0,West,11.5,-,N/A,,Overcast,280,2013-02-28 20:55:00
4:15 PM,46.9,31.3,55,29.56,10.0,West,11.5,-,N/A,,Overcast,280,2013-02-28 21:15:00
4:35 PM,46.8,31.6,56,29.56,10.0,West,9.2,-,N/A,,Overcast,280,2013-02-28 21:35:00
4:55 PM,47.1,31.1,54,29.56,10.0,WNW,5.8,-,N/A,,Overcast,300,2013-02-28 21:55:00
5:15 PM,47.3,30.6,52,29.56,10.0,WNW,10.4,-,N/A,,Overcast,290,2013-02-28 22:15:00
5:35 PM,46.6,28.9,50,29.57,10.0,West,13.8,-,N/A,,Overcast,280,2013-02-28 22:35:00
5:55 PM,45.5,29.3,53,29.57,10.0,West,12.7,-,N/A,,Scattered Clouds,280,2013-02-28 22:55:00
6:15 PM,44.8,27.9,52,29.58,10.0,West,10.4,-,N/A,,Clear,270,2013-02-28 23:15:00
6:35 PM,44.2,28.4,54,29.59,10.0,West,6.9,-,N/A,,Clear,280,2013-02-28 23:35:00
6:55 PM,43.9,28.8,55,29.59,10.0,West,8.1,-,N/A,,Clear,270,2013-02-28 23:55:00
7:15 PM,43.3,28.8,56,29.60,10.0,West,11.5,-,N/A,,Clear,280,2013-03-01 00:15:00
7:35 PM,43.0,28.8,57,29.60,10.0,West,10.4,-,N/A,,Scattered Clouds,270,2013-03-01 00:35:00
8:15 PM,42.6,29.7,60,29.61,10.0,West,12.7,-,N/A,,Overcast,280,2013-03-01 01:15:00
8:35 PM,42.6,30.2,61,29.61,10.0,West,10.4,-,N/A,,Overcast,280,2013-03-01 01:35:00
8:55 PM,42.1,30.7,64,29.62,10.0,WNW,8.1,-,N/A,,Overcast,290,2013-03-01 01:55:00
9:15 PM,42.1,30.9,65,29.62,10.0,WNW,8.1,-,N/A,,Overcast,290,2013-03-01 02:15:00
9:35 PM,41.9,31.5,66,29.62,10.0,West,9.2,-,N/A,,Overcast,280,2013-03-01 02:35:00
9:55 PM,41.5,31.1,66,29.62,10.0,West,8.1,-,N/A,,Overcast,280,2013-03-01 02:55:00
10:15 PM,41.5,31.1,66,29.62,10.0,West,8.1,-,N/A,,Overcast,280,2013-03-01 03:15:00
10:35 PM,41.0,31.6,69,29.62,10.0,West,10.4,-,N/A,,Overcast,280,2013-03-01 03:35:00
10:55 PM,40.5,31.6,71,29.62,10.0,West,9.2,-,N/A,,Overcast,280,2013-03-01 03:55:00
11:15 PM,39.9,31.3,71,29.62,10.0,West,8.1,-,N/A,,Mostly Cloudy,280,2013-03-01 04:15:00
11:35 PM,39.4,31.1,72,29.63,10.0,West,9.2,-,N/A,,Scattered Clouds,280,2013-03-01 04:35:00
11:55 PM,38.8,31.5,75,29.62,10.0,West,8.1,-,N/A,,Clear,280,2013-03-01 04:55:00